Kaktovik, AK

9:09 AM AKST on December 02, 2016 (GMT -0900)
Barter Island LRRS

Weather History for PABA - January, 2013

Change the Weather History Date:

Monday, January 21, 2013

  Actual Average Record
Temperature  
Mean Temperature -9 °F -  
Max Temperature -11 °F -4 °F 28 °F (2008)
Min Temperature -11 °F -16 °F -35 °F (1999)
Degree Days  
Heating Degree Days 74    
Moisture  
Dew Point -14 °F    
Average Humidity 81    
Maximum Humidity 87    
Minimum Humidity 78    
Precipitation  
Precipitation 0.00 in - - ()
Sea Level Pressure  
Sea Level Pressure 30.63 in    
Wind  
Wind Speed 26 mph (East)    
Max Wind Speed 31 mph    
Max Gust Speed -    
Visibility 8 miles    
Events      
Averages and records for this station are not official NWS values.
T = Trace of Precipitation, MM = Missing Value Source: NWS Daily Summary

Daily Weather History Graph

Daily Weather History Graph

Search for Another Location

Airport or City:

Trip Planner

Search our weather history database for the weather conditions in past years. The results will help you decide how hot, cold, wet, or windy it might be!

Date:

Astronomy

Jan. 21, 2013 Rise Set
Actual Time 11:30 AM AKST 2:02 PM AKST
Civil Twilight 9:32 AM AKST 3:59 PM AKST
Nautical Twilight 8:06 AM AKST 5:26 PM AKST
Astronomical Twilight 6:52 AM AKST 6:40 PM AKST
Moon 8:55 AM AKST (1/21) 7:55 AM AKST (1/21)
Length of Visible Light 6h 26m
Length of Day
2h 31m
Waxing Gibbous, 76% of the Moon is Illuminated
Jan 21
Waxing Gibbous
Jan 26
Full
Feb 3
Last Quarter
Feb 9
New
Feb 17
First Quarter

Hourly Weather History & Observations

Time (AKST) Temp. Windchill Dew Point Humidity Pressure Visibility Wind Dir Wind Speed Gust Speed Precip Events Conditions
12:01 AM -8.0 °F -36.2 °F -11.9 °F 83% 30.55 in 5.0 mi East 28.8 mph - N/A   Clear
1:01 AM -7.1 °F -35.4 °F -11.0 °F 83% 30.56 in 5.0 mi East 29.9 mph - N/A   Clear
2:01 AM -7.1 °F -35.8 °F -11.0 °F 83% 30.56 in 4.0 mi East 31.1 mph - N/A   Clear
3:01 AM -8.0 °F -36.2 °F -11.9 °F 83% 30.58 in 4.0 mi East 28.8 mph - N/A   Clear
4:01 AM -8.0 °F -36.2 °F -11.9 °F 83% 30.58 in 5.0 mi East 28.8 mph - N/A   Clear
5:01 AM -7.1 °F -34.6 °F -11.0 °F 83% 30.59 in 5.0 mi East 27.6 mph - N/A   Clear
6:01 AM -9.0 °F -36.3 °F -11.9 °F 87% 30.60 in 6.0 mi East 25.3 mph - N/A   Clear
7:01 AM -8.0 °F -35.8 °F -11.9 °F 83% 30.61 in 6.0 mi East 27.6 mph - N/A   Clear
8:01 AM -9.0 °F -35.8 °F -13.0 °F 83% 30.61 in 6.0 mi East 24.2 mph - N/A   Clear
9:01 AM -9.0 °F -35.8 °F -13.0 °F 83% 30.62 in 5.0 mi East 24.2 mph - N/A   Clear
10:01 AM -9.0 °F -34.8 °F -13.0 °F 83% 30.63 in 7.0 mi East 21.9 mph - N/A   Clear
11:01 AM -11.0 °F -36.8 °F -15.0 °F 83% 30.65 in 8.0 mi East 20.7 mph - N/A   Clear
12:01 PM -11.0 °F -37.9 °F -15.0 °F 83% 30.65 in 10.0 mi East 23.0 mph - N/A   Clear
1:01 PM -11.0 °F -37.4 °F -15.0 °F 83% 30.66 in 9.0 mi East 21.9 mph - N/A   Clear
2:01 PM -9.9 °F -35.4 °F -15.0 °F 78% 30.66 in 9.0 mi East 20.7 mph - N/A   Clear
3:01 PM -9.9 °F -35.4 °F -15.0 °F 78% 30.66 in 10.0 mi East 20.7 mph - N/A   Clear
4:01 PM -11.0 °F -37.4 °F -16.1 °F 78% 30.65 in 10.0 mi East 21.9 mph - N/A   Clear
5:01 PM -11.9 °F -37.4 °F -16.1 °F 82% 30.66 in 10.0 mi East 19.6 mph - N/A   Clear
6:01 PM -11.9 °F -38.6 °F -17.0 °F 78% 30.66 in 10.0 mi East 21.9 mph - N/A   Clear
7:01 PM -11.9 °F -38.0 °F -17.0 °F 78% 30.67 in 10.0 mi East 20.7 mph - N/A   Clear
8:01 PM -11.9 °F -38.6 °F -16.1 °F 82% 30.68 in 9.0 mi East 21.9 mph - N/A   Clear
9:01 PM -11.9 °F -38.0 °F -17.0 °F 78% 30.68 in 10.0 mi East 20.7 mph - N/A   Clear
10:01 PM -11.9 °F -38.0 °F -17.0 °F 78% 30.68 in 10.0 mi East 20.7 mph - N/A   Clear
11:01 PM -11.9 °F -37.4 °F -17.0 °F 78% 30.69 in 10.0 mi East 19.6 mph - N/A   Clear